Location: Amberg
(48.0613°N, 10.6820°E)
Time: 20:39:39
(UTC+00:00)

Cosmos 1400 Rocket - Pass Details

Date: 18 November 2025
Orbit: 477 x 514 km, 81.1° (Epoch: 05 December)

Event Time Altitude Azimuth Distance (km) Brightness Sun altitude
Rises 17:03:12 0° 171° (S) 2,617 6.3 -14.4°
Reaches altitude 10° 17:05:25 10° 163° (SSE) 1,732 5.3 -14.8°
Maximum altitude 17:08:57 38° 95° (E) 798 3.1 -15.3°
Enters shadow 17:10:19 27° 50° (NE) 996 3.6 -15.6°
